Location: *
(49.9853°N, 3.5569°E)
Time: 08:35:07
(UTC+00:00)

Cosmos 1766 - Pass Details

Date: 22 September 2019
Orbit: 521 x 546 km, 82.5° (Epoch: 18 October)

Event Time Altitude Azimuth Distance (km) Brightness Sun altitude
Exits shadow 19:54:28 20° 196° (SSW) 1,285 5.1 -20.9°
Maximum altitude 19:57:08 76° 280° (W) 555 3.3 -21.3°
Drops below altitude 10° 20:01:04 10° 7° (N) 1,789 6.2 -21.9°
Sets 20:03:13 0° 9° (N) 2,681 7.1 -22.2°
